Regional Weather Roundup
Issued by NWS

Home | Current Version | Previous Version | Text Only | Print | Product List | Glossary Off
Versions: 1 2 3 4 5 6 7 8 9 10 11 12 13 14 15 16 17 18 19 20 21 22 23 24 25 26 27 28 29 30 31 32 33 34 35 36 37 38 39 40 41 42 43 44 45 46 47 48 49 50

000
ASUS43 KDTX 220001
RWRMI
MICHIGAN HOURLY REGIONAL WEATHER ROUNDUP
NATIONAL WEATHER SERVICE DETROIT/PONTIAC MI
700 PM EST TUE FEB 21 2017

NOTE: "FAIR" INDICATES FEW OR NO CLOUDS BELOW 12,000 FEET WITH NO
SIGNIFICANT WEATHER AND/OR OBSTRUCTION TO VISIBILITY.

MIZ047>049-052>055-059>063-066>070-074>076-081>083-220100-
SOUTHEAST LOWER MICHIGAN

CITY           SKY/WX    TMP DP  RH WIND       PRES   REMARKS
ADRIAN         CLOUDY    53  49  86 CALM      29.95S
6HR MIN TEMP:  51; 6HR MAX TEMP:  58; 6HR PCP: TRACE;

ALMA           PTCLDY    50  47  92 W9        29.92S
6HR MIN TEMP:  49; 6HR MAX TEMP:  58;

ANN ARBOR      CLOUDY    55  49  80 CALM      29.94R
BAD AXE        FOG       42  41  97 CALM      29.92S VSB 1/4
6HR MIN TEMP:  41; 6HR MAX TEMP:  51;

CARO           FOG       45  44  99 CALM      29.92R VSB 1/2
DETROIT CITY   CLOUDY    55  48  77 SW8       29.95R
6HR MIN TEMP:  51; 6HR MAX TEMP:  57;

DETROIT        CLOUDY    54  48  80 S6        29.95R
6HR MIN TEMP:  53; 6HR MAX TEMP:  57; 6HR PCP: TRACE;

FLINT          CLOUDY    51  49  92 W3        29.93R
6HR MIN TEMP:  51; 6HR MAX TEMP:  60;

GROSSE ILE     CLOUDY    45  42  87 CALM      29.94R
6HR MIN TEMP:  40; 6HR MAX TEMP:  55;

HILLSDALE      PTCLDY    54  46  76 S3        29.94R
HOWELL         CLOUDY    56  50  78 CALM      29.93R
6HR MIN TEMP:  51; 6HR MAX TEMP:  61;


CITY           SKY/WX    TMP DP  RH WIND       PRES   REMARKS
JACKSON        CLOUDY    57  50  77 SW6       29.94R
6HR MIN TEMP:  55; 6HR MAX TEMP:  62;

LAMBERTVILLE   CLOUDY    56  49  78 CALM      29.94S
6HR MIN TEMP:  53; 6HR MAX TEMP:  58;

LANSING        CLOUDY    55  50  83 W5        29.94R
6HR MIN TEMP:  55; 6HR MAX TEMP:  61;

LAPEER         FAIR      54  49  84 SW3       29.93R
6HR MIN TEMP:  51; 6HR MAX TEMP:  59;

MASON          PTCLDY    55  53  92 CALM      29.93S
6HR MIN TEMP:  54; 6HR MAX TEMP:  63;

MONROE         CLOUDY    54  50  86 SW8       29.94R
6HR MIN TEMP:  52; 6HR MAX TEMP:  57;

MT. CLEMENS    MOCLDY    44  42  93 CALM      29.92R
6HR MIN TEMP:  43; 6HR MAX TEMP:  57; 6HR PCP: TRACE;

PONTIAC        CLOUDY    54  48  80 S6        29.92S
6HR MIN TEMP:  51; 6HR MAX TEMP:  59; 6HR PCP: TRACE;

PORT HOPE        N/A     42  41  96 CALM      29.90R
6HR MIN TEMP:  39; 6HR MAX TEMP:  50; 6HR PCP:  0.01;

PORT HURON     CLOUDY    46  41  81 S5        29.95R
TRI CITIES     PTCLDY    50  48  93 S5        29.92R
6HR MIN TEMP:  50; 6HR MAX TEMP:  57;

MIDLAND        FAIR      47  43  88 CALM      29.91R
6HR MIN TEMP:  47; 6HR MAX TEMP:  58;

TROY           PTCLDY    56  44  64 SW7       29.96R
SAGINAW HB     CLOUDY    50  45  81 SW3       29.92R
$$
MIZ043>046-050>051-056>058-064>065-071>073-077>080-220100-
SOUTHWEST LOWER MICHIGAN

CITY           SKY/WX    TMP DP  RH WIND       PRES   REMARKS
BATTLE CREEK   MOCLDY    57  51  80 W5        29.94R
6HR MIN TEMP:  57; 6HR MAX TEMP:  64;

BENTON HARBOR  MOCLDY    55  51  86 NE3       29.92S
6HR MIN TEMP:  53; 6HR MAX TEMP:  58;

BIG RAPIDS     PTCLDY    48  40  74 SW5       29.90S
6HR MIN TEMP:  48; 6HR MAX TEMP:  58;

COLDWATER      PTCLDY    54  49  83 CALM      29.93S
6HR MIN TEMP:  54; 6HR MAX TEMP:  60;

FREMONT        FAIR      49  44  81 S5        29.91S
HOLLAND        CLOUDY    51  48  89 CALM      29.93S
6HR MIN TEMP:  49; 6HR MAX TEMP:  56;

GRAND RAPIDS   MOCLDY    49  46  90 SW7       29.92S FOG
6HR MIN TEMP:  49; 6HR MAX TEMP:  56; 6HR PCP: TRACE;

IONIA          FAIR      49  47  95 SW5       29.92R
6HR MIN TEMP:  48; 6HR MAX TEMP:  56;

KALAMAZOO      MOCLDY    54  47  77 NW5       29.94R
6HR MIN TEMP:  54; 6HR MAX TEMP:  64;

LUDINGTON      CLEAR     43  41  94 CALM      29.89S
6HR MIN TEMP:  43; 6HR MAX TEMP:  51;

MARSHALL       CLOUDY    57  52  84 CALM      29.93R
6HR MIN TEMP:  57; 6HR MAX TEMP:  63;

MOUNT PLEASANT PTCLDY    51  46  82 SW5       29.91R
6HR MIN TEMP:  51; 6HR MAX TEMP:  58;

MUSKEGON       CLOUDY    46  43  89 S3        29.92S
6HR MIN TEMP:  46; 6HR MAX TEMP:  56;

SOUTH HAVEN    FOG       53  52  99 CALM      29.92F VSB 1/4
$$
MIZ016>042-220100-
NORTHERN LOWER MICHIGAN

CITY           SKY/WX    TMP DP  RH WIND       PRES   REMARKS
ALPENA         CLEAR     38  37  97 CALM      29.89R
6HR MIN TEMP:  38; 6HR MAX TEMP:  60;

BEAVER ISLAND  CLEAR     45  38  78 S6        29.85R
6HR MIN TEMP:  45; 6HR MAX TEMP:  50;

BELLAIRE       CLEAR     40  36  83 CALM      29.87S
6HR MIN TEMP:  40; 6HR MAX TEMP:  57;

CADILLAC       CLEAR     47  38  71 CALM      29.89R
CHARLEVOIX     CLEAR     44  37  77 CALM      29.89S
FRANKFORT      CLEAR     41  38  91 CALM      29.88S
GAYLORD        CLEAR     47  33  58 CALM      29.87R
6HR MIN TEMP:  47; 6HR MAX TEMP:  56;

GRAYLING       CLEAR     39  35  86 CALM      29.89S
6HR MIN TEMP:  39; 6HR MAX TEMP:  58;

HARBOR SPRINGS CLEAR     39  36  89 CALM      29.87S
HOUGHTON LAKE  CLEAR     40  38  93 S5        29.89R
6HR MIN TEMP:  40; 6HR MAX TEMP:  54;

MANISTEE       CLEAR     43  39  86 CALM      29.89S
OSCODA         CLEAR     46  41  82 CALM      29.89R
6HR MIN TEMP:  46; 6HR MAX TEMP:  56;

PELLSTON       CLEAR     44  36  73 S3        29.86S
6HR MIN TEMP:  42; 6HR MAX TEMP:  51;

ROGERS CITY    FOG       35  34  95 CALM      29.89R VSB 1/4
TRAVERSE CITY  PTCLDY    52  36  54 CALM      29.86S
6HR MIN TEMP:  52; 6HR MAX TEMP:  60;

$$
MIZ007>008-015-220100-
EASTERN UPPER MICHIGAN

CITY           SKY/WX    TMP DP  RH WIND       PRES   REMARKS
KINROSS        FOG       39  38  96 SE8       29.85R VSB 1/2 WCI  33
6HR MIN TEMP:  38; 6HR MAX TEMP:  43;

MACKINAC ISLAN CLEAR     38  38 100 SW8       29.85S WCI  32
6HR MIN TEMP:  37; 6HR MAX TEMP:  44;

NEWBERRY       PTCLDY    41  36  80 S7        29.82S
6HR MIN TEMP:  41; 6HR MAX TEMP:  52;

S. S. MARIE    CLEAR     38  33  82 S3        29.84R
6HR MIN TEMP:  38; 6HR MAX TEMP:  46;

MUNISING         N/A     36  33  89 CALM      29.78F
6HR MIN TEMP:  36; 6HR MAX TEMP:  58;

$$
MIZ004>006-011>014-085-220100-
CENTRAL UPPER MICHIGAN

CITY           SKY/WX    TMP DP  RH WIND       PRES   REMARKS
MANISTIQUE     CLEAR     38  37  98 S9        29.82S WCI  31
6HR MIN TEMP:  37; 6HR MAX TEMP:  56;

ESCANABA       CLOUDY    42  35  76 S9        29.80F
6HR MIN TEMP:  42; 6HR MAX TEMP:  59;

SAWYER-GWINN   CLEAR     50  28  43 S6        29.77F
$$
MIZ001>003-009>011-084-220100-
WESTERN UPPER MICHIGAN

CITY           SKY/WX    TMP DP  RH WIND       PRES   REMARKS
IRON MOUNTAIN  PTCLDY    50  28  42 S9        29.77S
6HR MIN TEMP:  48; 6HR MAX TEMP:  58;

HOUGHTON       PTCLDY    42  31  64 N3        29.72F
6HR MIN TEMP:  40; 6HR MAX TEMP:  48;

COPPER HARBOR    N/A     37  33  85 CALM      29.74F
6HR MIN TEMP:  37; 6HR MAX TEMP:  48;

IRONWOOD       CLOUDY    51  29  42 SW5       29.73R
6HR MIN TEMP:  51; 6HR MAX TEMP:  56;

$$

ABBREVIATIONS USED IN REMARKS
   TC - TEMPERATURE IN CELSIUS
  WCI - WIND CHILL INDEX
   HX - HEAT INDEX
  VSB - VISIBILITY





USA.gov is the U.S. government's official web portal to all federal, state and local government web resources and services.